EW4565 Weather Reports


time (UTC)temp
C
wind
direction
speed
KPH
gust
KPH
rain 1hr
cm
rain 24hr
cm
rain mn
cm
humidity
%
barometer
mb
20260503071623 12 251 0.0 0.0 0.00 0.00 0.00 52 1015.2
20260503071346 12 251 0.0 0.0 0.00 0.00 0.00 51 1015.1
20260503055001 13 251 0.0 1.6 0.00 0.00 0.00 47 1015.0
20260503054502 13 251 0.0 1.6 0.00 0.00 0.00 47 1015.0
20260503054003 14 251 0.0 0.0 0.00 0.00 0.00 47 1014.9
20260503053501 14 251 0.0 0.0 0.00 0.00 0.00 47 1014.8
20260503053004 14 251 0.0 0.0 0.00 0.00 0.00 47 1014.6
20260503052502 14 251 0.0 0.0 0.00 0.00 0.00 47 1014.6
20260503052002 14 251 0.0 1.6 0.00 0.00 0.00 48 1014.5
20260503051503 14 251 0.0 1.6 0.00 0.00 0.00 48 1014.6
20260503051000 15 251 0.0 0.0 0.00 0.00 0.00 47 1014.5
20260503050501 15 251 0.0 0.0 0.00 0.00 0.00 47 1014.3
20260503050002 15 251 0.0 0.0 0.00 0.00 0.00 47 1014.2
20260503045500 15 251 0.0 0.0 0.00 0.00 0.00 48 1014.2
20260503045002 15 251 0.0 0.0 0.00 0.00 0.00 48 1014.1
20260503044502 15 251 0.0 0.0 0.00 0.00 0.00 47 1014.0
20260503044000 15 251 0.0 0.0 0.00 0.00 0.00 47 1014.1
20260503043504 15 251 0.0 0.0 0.00 0.00 0.00 49 1014.0
20260503043258 16 251 0.0 0.0 0.00 0.00 0.00 49 1013.9
20260503042501 16 251 0.0 0.0 0.00 0.00 0.00 49 1013.9
20260503042001 16 251 0.0 0.0 0.00 0.00 0.00 48 1013.8
20260503041500 16 251 0.0 0.0 0.00 0.00 0.00 50 1013.8
20260503041006 16 251 0.0 0.0 0.00 0.00 0.00 49 1013.7
20260503040507 16 251 0.0 0.0 0.00 0.00 0.00 49 1013.7
20260503040001 16 251 0.0 0.0 0.00 0.00 0.00 48 1013.7
20260503035502 16 251 0.0 0.0 0.00 0.00 0.00 47 1013.7
20260503035002 16 251 0.0 0.0 0.00 0.00 0.00 47 1013.6
20260503034502 17 251 0.0 0.0 0.00 0.00 0.00 47 1013.6
20260503034004 17 251 0.0 0.0 0.00 0.00 0.00 46 1013.5
20260503033503 17 251 0.0 0.0 0.00 0.00 0.00 46 1013.4
20260503033001 17 251 0.0 0.0 0.00 0.00 0.00 45 1013.5
20260503032502 17 251 0.0 0.0 0.00 0.00 0.00 45 1013.4
20260503032304 18 251 0.0 0.0 0.00 0.00 0.00 44 1013.3
20260503031502 18 251 0.0 0.0 0.00 0.00 0.00 42 1013.2
20260503031300 19 251 0.0 0.0 0.00 0.00 0.00 40 1013.2
20260503030505 19 251 0.0 3.2 0.00 0.00 0.00 40 1013.1
20260503030005 20 251 0.0 3.2 0.00 0.00 0.00 38 1013.1
20260503025503 20 251 0.0 0.0 0.00 0.00 0.00 38 1013.1
20260503025310 20 251 0.0 0.0 0.00 0.00 0.00 36 1013.1
20260503024756 21 251 0.0 1.6 0.00 0.00 0.00 35 1013.1
20260503024007 21 251 0.0 1.6 0.00 0.00 0.00 33 1013.0
20260503023504 21 251 0.0 0.0 0.00 0.00 0.00 33 1013.0
20260503023004 22 251 0.0 1.6 0.00 0.00 0.00 33 1012.9
20260503022507 22 251 0.0 1.6 0.00 0.00 0.00 31 1012.9
20260503022005 22 249 0.0 0.0 0.00 0.00 0.00 32 1013.0
20260503021505 21 249 0.0 0.0 0.00 0.00 0.00 33 1012.9
20260503021004 22 249 0.0 0.0 0.00 0.00 0.00 33 1013.0
20260503020505 22 249 0.0 0.0 0.00 0.00 0.00 32 1012.9
20260503020006 22 248 0.0 0.0 0.00 0.00 0.00 32 1012.9
20260503015506 22 248 0.0 0.0 0.00 0.00 0.00 32 1012.8
20260503015003 23 249 0.0 3.2 0.00 0.00 0.00 32 1012.9
20260503014506 23 249 0.0 3.2 0.00 0.00 0.00 31 1012.9
20260503014257 23 249 0.0 3.2 0.00 0.00 0.00 31 1012.9
20260503013457 23 249 0.0 3.2 0.00 0.00 0.00 31 1012.9
20260503012958 23 249 0.0 1.6 0.00 0.00 0.00 30 1013.0
20260503012458 23 249 0.0 3.2 0.00 0.00 0.00 29 1013.1
20260503011954 23 249 0.0 4.8 0.00 0.00 0.00 30 1013.0
20260503011754 23 249 1.6 6.4 0.00 0.00 0.00 29 1013.2
20260503011000 23 247 1.6 6.4 0.00 0.00 0.00 29 1013.3
20260503010454 23 256 1.6 4.8 0.00 0.00 0.00 29 1013.2
20260503005956 23 256 0.0 4.8 0.00 0.00 0.00 30 1013.2
20260503005453 23 265 0.0 3.2 0.00 0.00 0.00 30 1013.2
20260503004951 22 264 0.0 4.8 0.00 0.00 0.00 31 1013.2
20260503004449 22 260 0.0 4.8 0.00 0.00 0.00 31 1013.3
20260503003949 22 258 0.0 3.2 0.00 0.00 0.00 31 1013.3
20260503003449 23 258 0.0 3.2 0.00 0.00 0.00 31 1013.2
20260503002946 23 258 0.0 3.2 0.00 0.00 0.00 31 1013.2
20260503002748 23 258 0.0 3.2 0.00 0.00 0.00 30 1013.3
20260503001945 24 258 0.0 4.8 0.00 0.00 0.00 29 1013.3
20260503001445 24 258 0.0 4.8 0.00 0.00 0.00 29 1013.3
20260503000945 23 258 0.0 4.8 0.00 0.00 0.00 31 1013.2
20260503000443 23 258 0.0 4.8 0.00 0.00 0.00 32 1013.4
20260502235941 23 258 0.0 4.8 0.00 0.00 0.00 32 1013.4
20260502235443 23 258 0.0 4.8 0.00 0.00 0.00 32 1013.4
20260502235239 23 258 0.0 4.8 0.00 0.00 0.00 33 1013.5
20260502234440 23 262 1.6 4.8 0.00 0.00 0.00 33 1013.5
20260502233940 23 263 1.6 4.8 0.00 0.00 0.00 33 1013.5
20260502233441 23 262 1.6 4.8 0.00 0.00 0.00 33 1013.6
20260502232943 23 260 1.6 6.4 0.00 0.00 0.00 31 1013.7
20260502232441 23 259 1.6 6.4 0.00 0.00 0.00 30 1013.7
20260502231935 23 279 1.6 6.4 0.00 0.00 0.00 31 1013.8
20260502231436 23 278 1.6 4.8 0.00 0.00 0.00 32 1013.9
20260502230935 23 275 1.6 6.4 0.00 0.00 0.00 32 1013.9
20260502230436 23 275 0.0 6.4 0.00 0.00 0.00 32 1014.0
20260502225934 23 266 0.0 4.8 0.00 0.00 0.00 33 1014.1
20260502225432 22 274 1.6 11.3 0.00 0.00 0.00 34 1014.2
20260502224931 22 264 1.6 11.3 0.00 0.00 0.00 34 1014.3
20260502224430 22 273 1.6 6.4 0.00 0.00 0.00 34 1014.3
20260502224229 22 264 1.6 6.4 0.00 0.00 0.00 33 1014.5
20260502223430 22 262 1.6 6.4 0.00 0.00 0.00 32 1014.5
20260502222932 23 274 1.6 6.4 0.00 0.00 0.00 34 1014.5
20260502222724 22 273 1.6 8.0 0.00 0.00 0.00 36 1014.5
20260502221932 22 256 1.6 8.0 0.00 0.00 0.00 37 1014.6
20260502221430 22 276 1.6 9.7 0.00 0.00 0.00 37 1014.5
20260502220930 22 263 1.6 9.7 0.00 0.00 0.00 37 1014.7
20260502220650 22 247 1.6 9.7 0.00 0.00 0.00 36 1014.7
20260502215931 22 291 3.2 9.7 0.00 0.00 0.00 35 1014.8
20260502215429 22 268 1.6 9.7 0.00 0.00 0.00 35 1014.8
20260502214928 22 252 1.6 4.8 0.00 0.00 0.00 35 1014.8
20260502214738 22 251 0.0 4.8 0.00 0.00 0.00 36 1015.0
20260502214228 22 249 1.6 6.4 0.00 0.00 0.00 37 1014.9
20260502213433 22 249 1.6 6.4 0.00 0.00 0.00 36 1015.0
20260502212933 22 243 0.0 6.4 0.00 0.00 0.00 38 1015.1
20260502212432 21 243 0.0 6.4 0.00 0.00 0.00 37 1015.2
20260502211934 21 241 0.0 4.8 0.00 0.00 0.00 39 1015.3
20260502211429 21 241 0.0 4.8 0.00 0.00 0.00 38 1015.3
20260502210929 21 241 0.0 4.8 0.00 0.00 0.00 38 1015.4
20260502210429 21 240 0.0 4.8 0.00 0.00 0.00 39 1015.5
20260502205923 21 241 1.6 4.8 0.00 0.00 0.00 39 1015.5
20260502205423 21 239 1.6 9.7 0.00 0.00 0.00 38 1015.6
20260502204923 20 237 1.6 9.7 0.00 0.00 0.00 38 1015.6
20260502204423 20 262 1.6 9.7 0.00 0.00 0.00 39 1015.6
20260502203921 20 264 1.6 11.3 0.00 0.00 0.00 39 1015.7
20260502203422 20 253 1.6 11.3 0.00 0.00 0.00 42 1015.7
20260502202919 20 255 0.0 6.4 0.00 0.00 0.00 41 1015.9
20260502202714 20 264 0.0 4.8 0.00 0.00 0.00 41 1015.9
20260502201921 20 264 1.6 6.4 0.00 0.00 0.00 39 1015.9
20260502201419 20 262 1.6 6.4 0.00 0.00 0.00 38 1016.1
20260502200917 20 282 1.6 11.3 0.00 0.00 0.00 37 1016.2
20260502200417 20 273 1.6 11.3 0.00 0.00 0.00 38 1016.3
20260502195917 20 292 1.6 6.4 0.00 0.00 0.00 37 1016.3
20260502195415 20 259 1.6 9.7 0.00 0.00 0.00 39 1016.3
20260502194917 20 276 1.6 12.9 0.00 0.00 0.00 39 1016.3
20260502194414 20 264 3.2 12.9 0.00 0.00 0.00 41 1016.3
20260502193916 20 283 3.2 12.9 0.00 0.00 0.00 40 1016.4
20260502193415 20 333 3.2 12.9 0.00 0.00 0.00 42 1016.4
20260502192913 20 296 3.2 11.3 0.00 0.00 0.00 39 1016.4
20260502192413 20 264 1.6 9.7 0.00 0.00 0.00 40 1016.6
20260502191914 19 240 1.6 4.8 0.00 0.00 0.00 42 1016.7
20260502191415 19 240 1.6 4.8 0.00 0.00 0.00 40 1016.8
20260502190913 19 236 1.6 8.0 0.00 0.00 0.00 41 1016.8
20260502190415 19 210 1.6 8.0 0.00 0.00 0.00 43 1016.9
20260502185913 19 239 1.6 4.8 0.00 0.00 0.00 43 1017.0
20260502185410 19 233 0.0 4.8 0.00 0.00 0.00 45 1017.0
20260502184909 18 268 0.0 4.8 0.00 0.00 0.00 45 1017.1
20260502184408 18 268 1.6 9.7 0.00 0.00 0.00 46 1017.2
20260502183906 18 268 1.6 9.7 0.00 0.00 0.00 45 1017.3
20260502183405 18 266 1.6 9.7 0.00 0.00 0.00 44 1017.3
20260502183127 18 266 1.6 9.7 0.00 0.00 0.00 47 1017.3
20260502182407 17 262 1.6 6.4 0.00 0.00 0.00 46 1017.4
20260502181902 17 259 1.6 3.2 0.00 0.00 0.00 47 1017.5
20260502181709 17 259 0.0 4.8 0.00 0.00 0.00 49 1017.6
20260502180902 17 258 0.0 4.8 0.00 0.00 0.00 47 1017.8
20260502180400 17 266 0.0 3.2 0.00 0.00 0.00 48 1017.6
20260502170400 15 256 1.6 9.7 0.00 0.00 0.00 52 1018.3
20260502163904 15 243 0.0 8.0 0.00 0.00 0.00 52 1018.4
20260502163404 15 247 0.0 8.0 0.00 0.00 0.00 53 1018.4
20260502162907 15 260 0.0 3.2 0.00 0.00 0.00 53 1018.4
20260502162404 15 262 0.0 3.2 0.00 0.00 0.00 53 1018.4
20260502161905 15 262 0.0 3.2 0.00 0.00 0.00 57 1018.5
20260502161407 14 262 0.0 3.2 0.00 0.00 0.00 56 1018.5
20260502160905 14 262 0.0 1.6 0.00 0.00 0.00 57 1018.5
20260502160404 14 262 0.0 1.6 0.00 0.00 0.00 56 1018.5
20260502151907 11 262 0.0 0.0 0.00 0.00 0.00 62 1018.7
20260502151404 11 262 0.0 0.0 0.00 0.00 0.00 63 1018.6
20260502150905 11 262 0.0 1.6 0.00 0.00 0.00 62 1018.7
20260502150405 11 262 0.0 1.6 0.00 0.00 0.00 61 1018.6
20260502130353 8 260 0.0 0.0 0.00 0.00 0.00 68 1018.0
20260502123351 8 260 0.0 0.0 0.00 0.00 0.00 67 1017.8
20260502122848 8 260 0.0 0.0 0.00 0.00 0.00 66 1017.9
20260502122347 8 260 0.0 0.0 0.00 0.00 0.00 66 1018.0
20260502121845 8 260 0.0 0.0 0.00 0.00 0.00 65 1018.1
20260502121343 8 260 0.0 0.0 0.00 0.00 0.00 66 1018.0
20260502120842 9 260 0.0 0.0 0.00 0.00 0.00 66 1017.9
20260502120338 9 260 0.0 0.0 0.00 0.00 0.00 66 1017.9
20260502120137 9 260 0.0 0.0 0.00 0.00 0.00 66 1017.9
20260502115337 9 260 0.0 0.0 0.00 0.00 0.00 65 1017.9
20260502114835 9 260 0.0 0.0 0.00 0.00 0.00 65 1017.8
20260502114335 9 260 0.0 0.0 0.00 0.00 0.00 64 1017.8
20260502113832 9 260 0.0 0.0 0.00 0.00 0.00 64 1017.8
20260502113330 9 260 0.0 0.0 0.00 0.00 0.00 64 1017.8
20260502112947 10 260 0.0 0.0 0.00 0.00 0.00 63 1017.8
20260502112925 9 260 0.0 0.0 0.00 0.00 0.00 63 1017.8
20260502111830 10 260 0.0 0.0 0.00 0.00 0.00 63 1017.8
20260502111330 10 260 0.0 0.0 0.00 0.00 0.00 63 1017.8
20260502110831 10 260 0.0 0.0 0.00 0.00 0.00 63 1017.8
20260502110330 10 260 0.0 0.0 0.00 0.00 0.00 62 1017.8
20260502105831 10 260 0.0 0.0 0.00 0.00 0.00 63 1017.8
20260502105329 10 260 0.0 0.0 0.00 0.00 0.00 63 1017.6
20260502104829 10 260 0.0 0.0 0.00 0.00 0.00 63 1017.6
20260502104329 10 260 0.0 0.0 0.00 0.00 0.00 61 1017.6
20260502103828 10 260 0.0 0.0 0.00 0.00 0.00 61 1017.6
20260502103324 10 260 0.0 0.0 0.00 0.00 0.00 60 1017.6
20260502102823 10 260 0.0 0.0 0.00 0.00 0.00 61 1017.6
20260502102618 10 260 0.0 0.0 0.00 0.00 0.00 61 1017.6
20260502101818 10 260 0.0 0.0 0.00 0.00 0.00 61 1017.5
20260502101317 10 260 0.0 0.0 0.00 0.00 0.00 61 1017.6
20260502100855 10 260 0.0 0.0 0.00 0.00 0.00 61 1017.4
20260502091309 11 260 0.0 0.0 0.00 0.00 0.00 56 1017.1
20260502090811 11 260 0.0 0.0 0.00 0.00 0.00 57 1017.1
20260502090559 11 260 0.0 0.0 0.00 0.00 0.00 57 1017.1